Skip Page Navigation
NASA JPL Caltech
NASA Logo - Jet Propulsion Laboratory + View the NASA Portal
+ Near-Earth Object (NEO) Program
Search JPL
JPL Home Earth Solar System Stars & Galaxies Technology
JPL Solar System Dynamics
BODIES ORBITS EPHEMERIDES TOOLS PHYSICAL DATA DISCOVERY FAQ SITE MAP
JPL Small-Body Database Browser
Search: [ help ]  
79286 (1995 SQ53)
Classification: Main-belt Asteroid          SPK-ID: 2079286
Ephemeris | Orbit Diagram | Orbital Elements | Physical Parameters | Discovery Circumstances ]

[ show orbit diagram ]
Orbital Elements at Epoch 2457400.5 (2016-Jan-13.0) TDB
Reference: JPL 14 (heliocentric ecliptic J2000)
 Element Value Uncertainty (1-sigma)   Units 
e .1733444554153258 6.9849e-08  
a 2.321090684394995 1.5475e-08 au
q 1.918742483738959 1.5998e-07 au
i 8.007846878587559 7.1045e-06 deg
node 35.85186007511156 4.6484e-05 deg
peri 18.22768610242143 5.2521e-05 deg
M 252.1648961039478 2.4025e-05 deg
tp 2457787.396009202735
(2017-Feb-02.89600920)
8.8047e-05 JED
period 1291.625438106372
3.54
1.2917e-05
3.536e-08
d
yr
n .2787185738055681 2.7874e-09 deg/d
Q 2.723438885051031 1.8158e-08 au
  Orbit Determination Parameters
   # obs. used (total)      704  
   data-arc span      7207 days (19.73 yr)  
   first obs. used      1995-09-28  
   last obs. used      2015-06-22  
   planetary ephem.      DE431  
   SB-pert. ephem.      SB431-BIG16  
   condition code      0  
   fit RMS      .56435  
   data source      ORB  
   producer      Otto Matic  
   solution date      2015-Jul-06 13:58:46  

Additional Information
 Earth MOID = .930192 au 
 Jupiter MOID = 2.65755 au 
 T_jup = 3.545 
[ show covariance matrix ]

Ephemeris | Orbit Diagram | Orbital Elements | Physical Parameters | Discovery Circumstances ]

Physical Parameter Table
Parameter Symbol Value Units Sigma Reference Notes
absolute magnitude H 15.0 mag n/a MPO280271  

79286 (1995 SQ53)          Discovered 1995-Sep-28 by BAO Schmidt CCD Asteroid Program at Xinglong
Reference: 20040504/Numbers.arcLast Updated: 2004-07-16

Alternate Designations
 1995 SQ53 = 2000 EY34 
Ephemeris | Orbit Diagram | Orbital Elements | Physical Parameters | Discovery Circumstances ]
ABOUT SSD CREDITS/AWARDS PRIVACY/COPYRIGHT GLOSSARY LINKS
FirstGov 2016-Feb-07 08:33 UT
(server date/time)  
NASA Home Page
Site Manager:   Ryan S. Park
Webmaster  Alan B. Chamberlin